Starlink 1185

operational
NORAD ID: 45087 Int'l Des: 2020-006 Owner: SPXS Country: US Constellation: starlink
LEOCIRCULARSTARLINK_TYPE

关于 Starlink 1185

正在加载描述...

实时位置

正在加载3D地球...

即将过境

高度历史

Altitude vs Time

uPlot chart will show altitude changes over time

两行轨道根数

1 45087U 20006AV 26036.33335648 .00105047 00000-0 57107-2 0 9993
2 45087 53.0833 31.7214 0001685 89.6000 175.1319 15.13634247 5748
Epoch: Feb 5, 2026 • Age: 8 hours

当前状态

高度 543.0 km
速度 7.59 km/s
星下点 -49.33°S, 103.12°W
发射日期 Jan 29, 2020
运行时间 6 years
类型 internet

技术详情

分类 Payload
质量 260.00 kg
干质量 248.00 kg
总质量 260.00 kg
长度 0.20 m
直径 2.80 m
跨度 9.00 m
形状 Box + pan
制造商 SPXS
平台类型 Starlink
阶段状态 In Orbit
所有者/国家 SPXS/US

大型星座

Loading constellations...